{"data":{"norad_id":60926,"epoch":"2026-05-24T18:56:26.097216Z","epoch_age_seconds":97196,"freshness":"FRESH","line1":"1 60926U 24155C   26144.78919094 -.00000580  00000+0  63914-7 0  9997","line2":"2 60926  53.1587 326.1870 0000606  58.5412 301.5666 15.69702743100404","mean_motion":15.69702743,"eccentricity":6.06e-5,"inclination_deg":53.1587,"raan_deg":326.187,"arg_perigee_deg":58.5412,"mean_anomaly_deg":301.5666,"bstar":6.3914e-8,"rev_number":10040,"period_min":91.737114330825,"perigee_km":359.33920145421,"apogee_km":360.1558330577,"semimajor_km":6737.884517256,"source":"CELESTRAK","updated_at":"2026-05-25T13:38:19.317294Z"}}